Hourly Data Report for October 23, 2012

All times are specified in Local Standard Time (LST). Add 1 hour to adjust for Daylight Saving Time where and when it is observed.

KITCHENER/WATERLOO
ONTARIO

43°27'39.000" N
80°22'43.000" W
321.60 m
6144239
71368
YKF

Download Data

Hourly Data (October 2012)
Hourly Data Report for October 23, 2012
Temp Definition
°C
Dew Point Temp Definition
°C
Rel Hum Definition
%
Wind Dir Definition
10's deg

Wind Spd Definition
km/h
Visibility Definition
km
Stn Press Definition
kPa
Hmdx Definition


Wind Chill Definition


Weather Definition


TIME
00:00 Legend Double Dagger 11.6 11.1 97 6 13 3.6 97.88     LegendNANA
01:00 Legend Double Dagger 11.8 11.3 97 LegendMM 4 4.8 97.86     LegendNANA
02:00 Legend Double Dagger 11.7 11.4 98 LegendMM 4 2.0 97.89     LegendNANA
03:00 Legend Double Dagger 11.7 11.2 97 9 8 4.8 97.84     LegendNANA
04:00 Legend Double Dagger 11.6 11.3 98 12 5 2.0 97.87     LegendNANA
05:00 Legend Double Dagger 11.7 11.4 98 11 15 2.0 97.83     LegendNANA
06:00 Legend Double Dagger 11.7 11.4 98 9 15 3.2 97.82     LegendNANA
07:00 Legend Double Dagger 11.2 10.9 98 8 13 4.8 97.86     LegendNANA
08:00 Legend Double Dagger 10.8 10.5 98 9 21 6.4 97.88     LegendNANA
09:00 Legend Double Dagger 9.9 9.5 97 8 26 8.1 97.87     LegendNANA
10:00 Legend Double Dagger 9.7 9.1 96 8 18 11.3 97.91     LegendNANA
11:00 Legend Double Dagger 9.8 9.2 96 9 21 6.4 97.90     LegendNANA
12:00 Legend Double Dagger 9.8 9.4 97 8 22 8.1 97.88     LegendNANA
13:00 Legend Double Dagger 10.1 9.5 96 8 26 16.1 97.83     LegendNANA
14:00 Legend Double Dagger 10.0 9.4 96 8 18 16.1 97.84     LegendNANA
15:00 Legend Double Dagger 9.9 9.5 97 9 18 9.7 97.84     LegendNANA
16:00 Legend Double Dagger 9.7 9.3 97 8 17 6.4 97.86     LegendNANA
17:00 Legend Double Dagger 9.5 9.1 97 9 22 6.4 97.91     LegendNANA
18:00 Legend Double Dagger 9.2 8.9 98 9 13 4.8 97.96     LegendNANA
19:00 Legend Double Dagger 8.9 8.6 98 9 18 4.8 98.02     LegendNANA
20:00 Legend Double Dagger 8.8 8.5 98 9 17 3.2 98.06     LegendNANA
21:00 Legend Double Dagger 8.7 8.4 98 8 18 4.8 98.08     LegendNANA
22:00 Legend Double Dagger 8.5 8.1 97 8 11 6.4 98.08     LegendNANA
23:00 Legend Double Dagger 8.1 7.5 96 9 18 12.9 98.07     LegendNANA

Notes on Data Quality.

Legend

  • E = Estimated
  • M = Missing
  • NA = Not Available
  • ‡ = Partner data that is not subject to review by the National Climate Archives
Date modified: